AirNav   Air Wisconsin pilot careers
 
 1453 users online  

80VA Holly Springs Airport
Richmond, Virginia, USA

GOING TO RICHMOND?


FAA INFORMATION EFFECTIVE 19 JULY 2018

Location

FAA Identifier: 80VA
Lat/Long: 37-47-28.5180N / 077-49-28.9780W
37-47.475300N / 077-49.482967W
37.7912550 / -77.8247161
(estimated)
Elevation: 250 ft. / 76 m (estimated)
Variation: 09W (1990)
From city: 17 miles N of RICHMOND, VA
Time zone: UTC -4 (UTC -5 during Standard Time)
Zip code: 23024

Airport Operations

Airport use: Private use. Permission required prior to landing
Activation date: 02/1994
Control tower: no
ARTCC: WASHINGTON CENTER
FSS: LEESBURG FLIGHT SERVICE STATION
Attendance: SAT-SUN DAWN-DUSK
Wind indicator: yes
Segmented circle: no
Lights: FOR STROBE LIGHT & LIRL RY 06/24 CALL (804) 883-5314.
Beacon: FLASHING STROBE LIGHT.

Airport Communications

WX AWOS-3 at 7W4 (11 nm N): 120.775 (540-872-0303)
WX AWOS-3 at LKU (15 nm NW): 119.475 (540-967-1983)
WX ASOS at OFP (19 nm E): 119.025 (804-752-2902)

Nearby radio navigation aids

VOR radial/distance  VOR name  Freq  Var
FAKr007/15.8FLAT ROCK VORTAC113.3006W
GVEr137/20.5GORDONSVILLE VORTAC115.6006W
RICr315/29.6RICHMOND VORTAC114.1009W
BRVr223/39.6BROOKE VORTAC114.5009W

 
NDB name  Hdg/Dist  Freq  Var  ID
SHANNON222/33.523710WEZF . --.. ..-.
FARMVILLE057/39.336709WFVX ..-. ...- -..-
NAILR185/40.035110WMSQ -- ... --.-

Airport Services

Fuel available: MOGAS

Runway Information

Runway 6/24

Dimensions: 2000 x 90 ft. / 610 x 27 m
Surface: turf
Runway edge lights: low intensity
RUNWAY 6  RUNWAY 24
Traffic pattern: leftleft

Airport Ownership and Management from official FAA records

Ownership: Privately-owned
Owner: JAMES DUNN SR
RT 1 BOX 2270
MONTPELIER, VA 23192
Phone 804-883-5314
Manager: JAMES DUNN SR
RT 1 BOX 2270
MONTPELIER, VA 23193
Phone 804-883-5314

Airport Operational Statistics

Aircraft based on the field: 7
Single engine airplanes: 7
    

Instrument Procedures

There are no published instrument procedures at 80VA.

Some nearby airports with instrument procedures:

7W4 - Lake Anna Airport (11 nm N)
KLKU - Louisa County Airport/Freeman Field (15 nm NW)
KOFP - Hanover County Municipal Airport (19 nm E)
KFCI - Richmond Executive Airport-Chesterfield County (27 nm SE)
KGVE - Gordonsville Municipal Airport (27 nm NW)
 
Loc | Ops | Rwys | IFR | FBO | Links
Com | Nav | Svcs | Stats | Notes


 
Area around 80VA (Holly Springs Airport)
 
Road maps at: MapQuest Bing Google
 
Aerial photo
No photo
 
Sectional chart

 
Airport distance calculator
Flying to Holly Springs Airport? Find the distance to fly.

From to 80VA

Sunrise and sunset
Times for 15-Aug-2018
 Local
(UTC-4)
 Zulu
(UTC)
Morning civil twilight06:0010:00
Sunrise06:2810:28
Sunset20:0400:04
Evening civil twilight20:3200:32

Current date and time
Zulu (UTC)  15-Aug-2018 21:18:11
Local (UTC-4)  15-Aug-2018 17:18:11
 
METAR
K7W4 
11nm N 
152055Z AUTO 24004KT 10SM SCT050 29/21 A3004 RMK AO1 T02940214
KLKU 
15nm NW 
152055Z AUTO 25005KT 10SM CLR 30/20 A3008 RMK AO2 T02980202
KOFP 
19nm E 
152054Z AUTO 25005KT 10SM CLR 31/20 A3004 RMK AO2 SLP169 T03060200 55007
TAF
KRIC 
29nm SE 
151740Z 1518/1618 28004KT P6SM FEW050 FM160100 00000KT P6SM SCT250 FM161500 20005KT P6SM FEW045
KCHO 
36nm NW 
151739Z 1518/1618 20005KT P6SM FEW050 FM160200 00000KT P6SM FEW250 FM161500 20005KT P6SM SCT200
NOTAMs
Click for the latest NOTAMs
NOTAMs are issued by the DoD/FAA and will open in a separate window not controlled by AirNav.

 

 
 

Would you like to see your business listed on this page?

 If your business provides an interesting product or service to pilots, flight crews, aircraft, or users of the Holly Springs Airport, you should consider listing it here.  To start the listing process, click on the button below
 
Add a business
 

Other Pages about Holly Springs Airport

www.erols.com/...
 
Update a link
 
Copyright © AirNav, LLC. All rights reserved. Privacy Policy  Contact